Location: East Guldeford
(50.9500°N, 0.7500°E)
Time: 08:39:07
(UTC+00:00)

ATLAS CENTAUR R/B - Pass Details

Date: 12 May 2021
Orbit: 472 x 671 km, 64.6° (Epoch: 13 June)

Event Time Altitude Azimuth Distance (km) Brightness Sun altitude
Exits shadow 23:40:03 34° 96° (E) 818 2.1 -20.6°
Drops below altitude 10° 23:42:56 10° 54° (NE) 1,717 4.3 -20.6°
Sets 23:45:14 0° 46° (NE) 2,636 5.4 -20.6°
